x

Pembrey Sands Samos (03605) Weather Station

9:00am - Fri 19th Jan 2018 All times are GMT.

  • Wind
    11mph
  • Air Temp 41°f
  • Sea Pressure 1010mb
  • Pembrey Sands Samos
  • Pembrey Sands Samos

More Historic Weather Station data

Upgrade to MSW Pro to gain access to the past 30 days of data for over 8000 Wavebouys and Weather Stations around the globe.

Join

Comparision Forecast

View Surf forecast
   
Fri 01/19 9:00am 11
mph
1010mb 41f
8:00am 13
mph
1010mb 41f
7:00am 11
mph
1009mb 39f
6:00am 7
mph
1009mb 37f
5:00am 9
mph
1009mb 37f
4:00am 14
mph
1009mb 39f
3:00am 11
mph
1009mb 39f
2:00am 14
mph
1008mb 39f
1:00am 11
mph
1008mb 39f
12:00am 14
mph
1008mb 41f
Thu 01/18 11:00pm 18
mph
1008mb 41f
10:00pm 11
mph
1008mb 41f
9:00pm 15
mph
1008mb 41f
8:00pm 22 29 mph 1007mb 41f
7:00pm 19
mph
1007mb 41f
6:00pm 17
mph
1006mb 43f
5:00pm 17 34 mph 1006mb 43f
4:00pm 25 37 mph 1005mb 43f
3:00pm 28 34 mph 1004mb 45f
2:00pm 29 38 mph 1004mb 45f
1:00pm 29 39 mph 1004mb 46f
12:00pm 26 33 mph 1004mb 46f
11:00am 22
mph
1003mb 45f
10:00am 15
mph
1003mb 45f
9:00am 16 32 mph 1002mb 43f
8:00am 24 34 mph 1002mb 45f
7:00am 25 32 mph 1001mb 45f
6:00am 29 39 mph 1001mb 45f
5:00am 34 48 mph 1000mb 45f
4:00am 39 55 mph 998mb 46f
3:00am 43 72 mph 996mb 48f
2:00am 48 70 mph 995mb 50f
1:00am 47 64 mph 994mb 50f
12:00am 45 57 mph 995mb 50f
Wed 01/17 11:00pm 48 59 mph 996mb 50f
10:00pm 45 54 mph 997mb 48f
9:00pm 34 44 mph 1000mb 46f
8:00pm 31 41 mph 1003mb 45f
7:00pm 23 32 mph 1006mb 45f
6:00pm 21 30 mph 1008mb 45f
5:00pm 17
mph
1009mb 45f
4:00pm 17
mph
1010mb 45f
3:00pm 24 33 mph 1010mb 45f
2:00pm 26 38 mph 1011mb 45f
1:00pm 30 41 mph 1011mb 45f
12:00pm 32 41 mph 1011mb 45f
11:00am 28 39 mph 1010mb 43f
10:00am 30 39 mph 1010mb 43f
9:00am 31 41 mph 1009mb 43f
8:00am 28 37 mph 1008mb 43f
7:00am 25 39 mph 1007mb 41f
6:00am 36 49 mph 1006mb 41f
5:00am 37 51 mph 1005mb 41f
4:00am 33 49 mph 1004mb 41f
3:00am 38 47 mph 1002mb 39f
2:00am 38 48 mph 1001mb 39f
1:00am 41 56 mph 1000mb 39f
12:00am 41 55 mph 999mb 39f
Tue 01/16 11:00pm 34 47 mph 998mb 39f
10:00pm 30 49 mph 998mb 37f
9:00pm 30 41 mph 997mb 37f
8:00pm 31 47 mph 996mb 37f
7:00pm 33 40 mph 996mb 41f
6:00pm 32 45 mph 996mb 41f
5:00pm 26 52 mph 996mb 41f
4:00pm 26 47 mph 996mb 41f
3:00pm 26 40 mph 996mb 43f
2:00pm 31 45 mph 997mb 41f
1:00pm 25 47 mph 997mb 43f
12:00pm 37 48 mph 998mb 43f
11:00am 28 37 mph 998mb 43f
10:00am 29 45 mph 998mb 41f
9:00am 29 37 mph 998mb 43f
8:00am 29 37 mph 997mb 43f
7:00am 28 53 mph 997mb 41f
6:00am 26 52 mph 996mb 41f
5:00am 32 39 mph 996mb 43f
4:00am 24 44 mph 996mb 43f
3:00am 25 44 mph 996mb 43f
2:00am 22 41 mph 995mb 43f
1:00am 24 40 mph 995mb 45f
12:00am 26 44 mph 995mb 45f
Mon 01/15 11:00pm 24 41 mph 995mb 43f
10:00pm 25 33 mph 995mb 45f
9:00pm 17 30 mph 996mb 45f
8:00pm 19 31 mph 996mb 45f
7:00pm 24 33 mph 996mb 45f
6:00pm 14
mph
996mb 45f
5:00pm 21 32 mph 996mb 46f
4:00pm 16
mph
996mb 46f
3:00pm 23 38 mph 996mb 46f
2:00pm 24 39 mph 996mb 48f
1:00pm 17 41 mph 996mb 48f
12:00pm 28 36 mph 995mb 50f
11:00am 23 31 mph 995mb 48f
10:00am 21 37 mph 995mb 46f